Kaneohe MCBH, HI

7:07 PM HST on June 26, 2017 (GMT -1000)
Kaneohe Bay Marine Corps Air Facility

Weather History for PHNG - May, 2014

Change the Weather History Date:

Sunday, May 11, 2014

  Actual Average Record
Temperature  
Mean Temperature 76 °F -  
Max Temperature 82 °F 76 °F 82 °F (2005)
Min Temperature 71 °F 69 °F 68 °F (1997)
Cooling Degree Days 12    
Growing Degree Days 26 (Base 50)    
Moisture  
Dew Point 66 °F    
Average Humidity 71    
Maximum Humidity 85    
Minimum Humidity 57    
Precipitation  
Precipitation 0.00 in - - ()
Sea Level Pressure  
Sea Level Pressure 30.05 in    
Wind  
Wind Speed 8 mph (NE)    
Max Wind Speed 20 mph    
Max Gust Speed 25 mph    
Visibility 7 miles    
Events Rain    
Averages and records for this station are not official NWS values.
T = Trace of Precipitation, MM = Missing Value Source: NWS Daily Summary

Daily Weather History Graph

Daily Weather History Graph

Search for Another Location

Airport or City:

Trip Planner

Search our weather history database for the weather conditions in past years. The results will help you decide how hot, cold, wet, or windy it might be!

Date:

Astronomy

May. 11, 2014 Rise Set
Actual Time 5:54 AM HST 7:00 PM HST
Civil Twilight 5:30 AM HST 7:24 PM HST
Nautical Twilight 5:02 AM HST 7:52 PM HST
Astronomical Twilight 4:33 AM HST 8:21 PM HST
Moon 4:28 PM HST (5/11) 3:41 AM HST (5/11)
Length of Visible Light 13h 53m
Length of Day
13h 06m
Waxing Gibbous, 90% of the Moon is Illuminated
May 11
Waxing Gibbous
May 14
Full
May 21
Last Quarter
May 28
New
Jun 5
First Quarter

Hourly Weather History & Observations

Time (HST) Temp. Heat Index Dew Point Humidity Pressure Visibility Wind Dir Wind Speed Gust Speed Precip Events Conditions
12:57 AM 71.6 °F - 66.9 °F 85% 30.05 in 9.0 mi Calm Calm - N/A   Partly Cloudy
1:57 AM 71.6 °F - 66.0 °F 82% 30.04 in 9.0 mi ESE 4.6 mph - N/A   Scattered Clouds
2:57 AM 71.6 °F - 66.0 °F 82% 30.02 in 9.0 mi East 4.6 mph - N/A   Overcast
3:57 AM 71.6 °F - 66.0 °F 82% 30.02 in 8.0 mi Calm Calm - N/A   Overcast
4:57 AM 71.6 °F - 66.0 °F 82% 30.02 in 9.0 mi Calm Calm - N/A   Scattered Clouds
5:49 AM - - - N/A% 30.04 in 6.2 mi Calm Calm - N/A   Mostly Cloudy
5:57 AM - - - N/A% 30.03 in 7.0 mi Calm Calm - N/A   Mostly Cloudy
6:24 AM 73.4 °F - 66.2 °F 78% 30.05 in 6.2 mi ENE 4.6 mph - N/A   Mostly Cloudy
6:57 AM 73.4 °F - 66.0 °F 78% 30.04 in 8.0 mi NE 6.9 mph - N/A   Scattered Clouds
7:57 AM 73.4 °F - 66.9 °F 80% 30.05 in 9.0 mi NE 8.1 mph - N/A   Partly Cloudy
8:57 AM 75.2 °F - 66.9 °F 75% 30.06 in 9.0 mi NE 8.1 mph - N/A   Mostly Cloudy
9:11 AM 77.0 °F - 66.2 °F 69% 30.07 in 4.0 mi NE 10.4 mph - N/A   Haze
9:13 AM 77.0 °F - 66.2 °F 69% 30.07 in - ENE 4.6 mph - N/A   Haze
9:21 AM 77.0 °F - 66.2 °F 69% 30.07 in 6.2 mi North 6.9 mph - N/A   Overcast
9:37 AM 77.0 °F - 66.2 °F 69% 30.07 in 6.2 mi NE 10.4 mph - N/A   Mostly Cloudy
9:57 AM 78.8 °F - 66.9 °F 67% 30.06 in 7.0 mi ENE 9.2 mph 16.1 mph N/A   Partly Cloudy
10:57 AM 80.6 °F 83.2 °F 68.0 °F 65% 30.06 in 9.0 mi NE 10.4 mph - N/A   Scattered Clouds
11:57 AM 82.4 °F 85.8 °F 69.1 °F 64% 30.06 in 9.0 mi ENE 8.1 mph - N/A   Overcast
12:57 PM 82.4 °F 84.4 °F 66.0 °F 57% 30.04 in 9.0 mi NNE 13.8 mph - N/A   Mostly Cloudy
1:57 PM 82.4 °F 85.4 °F 68.0 °F 62% 30.02 in 6.0 mi North 11.5 mph - N/A   Haze
2:24 PM - - - N/A% 30.03 in 6.2 mi NNE 15.0 mph - N/A   Overcast
2:39 PM 82.4 °F 85.4 °F 68.0 °F 62% 30.03 in 6.2 mi NNE 15.0 mph - N/A   Overcast
2:57 PM 82.4 °F 85.4 °F 68.0 °F 62% 30.01 in 6.0 mi North 17.3 mph - N/A   Haze
3:05 PM 80.6 °F 82.7 °F 66.2 °F 61% 30.02 in 6.2 mi NNE 17.3 mph - N/A   Overcast
3:18 PM 80.6 °F 82.7 °F 66.2 °F 61% 30.02 in 6.2 mi NNE 16.1 mph - N/A   Overcast
3:25 PM 80.6 °F 82.7 °F 66.2 °F 61% 30.02 in 6.2 mi NNE 16.1 mph - N/A   Overcast
3:57 PM 80.6 °F 82.7 °F 66.0 °F 61% 30.00 in 7.0 mi NE 12.7 mph - N/A   Overcast
4:10 PM 80.6 °F 82.3 °F 64.4 °F 58% 30.02 in 6.2 mi NNE 16.1 mph - N/A   Overcast
4:57 PM 80.6 °F 82.4 °F 64.9 °F 59% 30.00 in 8.0 mi NNE 16.1 mph - N/A   Overcast
5:30 PM 78.8 °F - 66.2 °F 65% 30.02 in - NE 16.1 mph - 0.00 in Rain Light Rain
5:57 PM 78.8 °F - 66.0 °F 65% 30.01 in 7.0 mi NE 17.3 mph 24.2 mph 0.00 in   Overcast
6:07 PM 77.0 °F - 64.4 °F 65% 30.03 in 6.2 mi NE 17.3 mph - N/A   Overcast
6:57 PM 77.0 °F - 64.9 °F 66% 30.03 in 7.0 mi NNE 19.6 mph 25.3 mph 0.00 in Rain Light Rain
7:11 PM 75.2 °F - 64.4 °F 69% 30.05 in 6.2 mi NNE 12.7 mph - 0.00 in Rain Heavy Rain
7:27 PM 75.2 °F - 64.4 °F 69% 30.05 in 6.2 mi ENE 15.0 mph 20.7 mph N/A   Overcast
7:43 PM 75.2 °F - 64.4 °F 69% 30.06 in 6.2 mi NE 15.0 mph 21.9 mph N/A   Overcast
7:57 PM 75.2 °F - 64.0 °F 68% 30.05 in 7.0 mi ENE 12.7 mph 19.6 mph N/A   Overcast
8:15 PM 75.2 °F - 66.2 °F 73% 30.07 in 6.2 mi NE 10.4 mph 19.6 mph N/A   Overcast
8:57 PM 75.2 °F - 66.0 °F 73% 30.06 in 8.0 mi ENE 12.7 mph 19.6 mph N/A   Overcast
9:34 PM 73.4 °F - 66.2 °F 78% 30.09 in - ENE 12.7 mph 20.7 mph N/A   Haze
9:44 PM 73.4 °F - 66.2 °F 78% 30.08 in - ENE 12.7 mph 19.6 mph N/A   Haze
9:49 PM 73.4 °F - 66.2 °F 78% 30.08 in 6.2 mi NE 9.2 mph 19.6 mph N/A   Overcast
9:57 PM 73.4 °F - 66.0 °F 78% 30.07 in 7.0 mi NE 10.4 mph 19.6 mph N/A   Overcast
10:57 PM 73.4 °F - 64.9 °F 75% 30.07 in 7.0 mi ENE 9.2 mph - N/A   Overcast
11:35 PM 73.4 °F - 66.2 °F 78% 30.08 in 1.0 mi NE 17.3 mph 21.9 mph N/A   Haze
11:43 PM 73.4 °F - 66.2 °F 78% 30.08 in 0.8 mi NE 12.7 mph 21.9 mph N/A   Haze
11:52 PM 73.4 °F - 66.2 °F 78% 30.07 in 1.2 mi NE 9.2 mph 18.4 mph N/A   Haze
11:57 PM 73.4 °F - 66.0 °F 78% 30.06 in 1.2 mi ENE 11.5 mph 16.1 mph N/A   Haze